PA3EUZ Weather Reports


Display with metric or nautical units.
time (UTC)temp
F
wind
direction
speed
MPH
gust
MPH
rain 1hr
in
rain 24hr
in
rain mn
in
humidity
%
barometer
mb
20260507114516 60 315 1.0 3.0 0.00 0.00 0.00 56 1016.2
20260507113016 60 293 1.0 4.0 0.00 0.00 0.00 59 1016.2
20260507111516 60 293 2.0 6.0 0.00 0.00 0.00 62 1016.3
20260507110016 60 0.0 4.0 0.00 0.00 0.00 61 1016.4
20260507104516 60 338 1.0 7.0 0.00 0.00 0.00 60 1016.5
20260507103016 59 0.0 3.0 0.00 0.00 0.00 62 1016.4
20260507101516 60 0 1.0 4.0 0.00 0.00 0.00 59 1016.4
20260507100016 61 23 1.0 4.0 0.00 0.00 0.00 57 1016.3
20260507094516 61 0.0 7.0 0.00 0.00 0.00 57 1016.3
20260507093016 60 90 1.0 7.0 0.00 0.00 0.00 58 1016.2
20260507091516 60 90 1.0 8.0 0.00 0.00 0.00 62 1016.1
20260507090016 59 68 1.0 6.0 0.00 0.00 0.00 63 1016.1
20260507084516 58 23 1.0 7.0 0.00 0.00 0.00 65 1016.0
20260507083016 58 0.0 4.0 0.00 0.00 0.00 67 1016.1
20260507081516 57 68 1.0 8.0 0.00 0.00 0.00 68 1016.1
20260507080016 56 90 1.0 6.0 0.00 0.00 0.00 70 1016.0
20260507074516 57 45 1.0 4.0 0.00 0.00 0.00 69 1015.9
20260507073016 55 0.0 4.0 0.00 0.00 0.00 72 1015.9
20260507071516 54 0.0 4.0 0.00 0.00 0.00 76 1015.9
20260507070016 53 68 1.0 4.0 0.00 0.00 0.00 74 1015.8
20260507064556 52 68 1.0 8.0 0.00 0.00 0.00 78 1015.8
20260507063016 50 68 1.0 6.0 0.00 0.00 0.00 80 1015.7
20260507061538 49 0.0 1.0 0.00 0.00 0.00 82 1015.5
20260507060018 49 0.0 2.0 0.00 0.00 0.00 83 1015.5
20260507054518 48 0.0 1.0 0.00 0.00 0.00 84 1015.4
20260507053021 47 0.0 3.0 0.00 0.00 0.00 85 1015.3
20260507051538 47 0.0 4.0 0.00 0.00 0.00 87 1015.0
20260507050018 46 0.0 4.0 0.00 0.00 0.00 88 1014.9
20260507044518 46 0.0 1.0 0.00 0.00 0.00 89 1014.7
20260507043018 46 0.0 0.0 0.00 0.00 0.00 89 1014.6
20260507041518 47 0.0 0.0 0.00 0.00 0.00 89 1014.4
20260507040018 47 0.0 0.0 0.00 0.00 0.00 88 1014.3
20260507034538 47 0.0 0.0 0.00 0.00 0.00 88 1014.3
20260507033018 47 0.0 0.0 0.00 0.00 0.00 88 1014.2
20260507031538 48 0.0 1.0 0.00 0.00 0.00 87 1014.0
20260507030018 48 0.0 2.0 0.00 0.00 0.00 87 1014.0
20260507024518 48 0.0 2.0 0.00 0.00 0.00 86 1014.0
20260507023037 48 0.0 0.0 0.00 0.00 0.00 85 1013.9
20260507021538 49 0.0 1.0 0.00 0.00 0.00 84 1013.8
20260507020018 49 0.0 3.0 0.00 0.00 0.00 83 1013.7
20260507014518 50 0.0 3.0 0.00 0.00 0.00 83 1013.5
20260507013018 50 0.0 1.0 0.00 0.00 0.00 82 1013.6
20260507011538 50 0.0 0.0 0.00 0.00 0.00 82 1013.6
20260507010017 50 0.0 1.0 0.00 0.00 0.00 81 1013.5
20260507004518 50 0.0 0.0 0.00 0.00 0.00 81 1013.4
20260507003018 50 0.0 3.0 0.00 0.00 0.00 80 1013.4
20260507001518 50 0.0 0.0 0.00 0.00 0.00 80 1013.3
20260507000017 50 0.0 0.0 0.00 0.00 0.00 80 1013.3
20260506234518 50 0.0 0.0 0.00 0.00 0.00 79 1013.3
20260506233037 51 0.0 0.0 0.00 0.00 0.00 79 1013.2
20260506231518 51 0.0 0.0 0.00 0.00 0.00 78 1013.0
20260506230017 51 0.0 0.0 0.00 0.00 0.00 79 1013.0
20260506224518 51 0.0 0.0 0.00 0.00 0.00 78 1012.9
20260506223018 51 0.0 0.0 0.00 0.00 0.00 78 1012.9
20260506221538 52 0.0 0.0 0.00 0.00 0.00 77 1012.8
20260506220018 52 0.0 0.0 0.00 0.00 0.00 76 1012.8
20260506214516 52 0.0 0.0 0.00 0.00 0.00 75 1012.7
20260506213017 52 0.0 0.0 0.00 0.00 0.00 73 1012.6
20260506211516 53 0.0 0.0 0.00 0.00 0.00 71 1012.5
20260506210037 53 0.0 0.0 0.00 0.00 0.00 70 1012.4
20260506204516 53 0.0 3.0 0.00 0.00 0.00 69 1012.2
20260506203036 53 0.0 0.0 0.00 0.00 0.00 69 1012.1
20260506201516 53 0.0 0.0 0.00 0.00 0.00 68 1012.1
20260506200016 53 0.0 0.0 0.00 0.00 0.00 67 1012.0
20260506194536 53 0.0 0.0 0.00 0.00 0.00 66 1011.8
20260506193017 54 0.0 0.0 0.00 0.00 0.00 66 1011.7
20260506191556 54 0.0 0.0 0.00 0.00 0.00 64 1011.6
20260506190017 54 0.0 6.0 0.00 0.00 0.00 64 1011.4
20260506184516 54 113 1.0 7.0 0.00 0.00 0.00 65 1011.2
20260506183016 54 90 2.0 9.0 0.00 0.00 0.00 64 1011.1
20260506181536 54 90 2.0 9.0 0.00 0.00 0.00 64 1011.0
20260506180016 55 68 2.0 9.0 0.00 0.00 0.00 63 1010.7
20260506174516 55 68 2.0 8.0 0.00 0.00 0.00 62 1010.6
20260506173036 56 68 2.0 13.0 0.00 0.00 0.00 61 1010.4
20260506171516 56 68 3.0 14.0 0.00 0.00 0.00 59 1010.2
20260506170016 57 45 3.0 10.0 0.00 0.00 0.00 58 1010.1
20260506164516 58 45 4.0 12.0 0.00 0.00 0.00 56 1010.0
20260506163016 59 68 5.0 14.0 0.00 0.00 0.00 53 1009.9
20260506161536 59 68 3.0 11.0 0.00 0.00 0.00 53 1009.8
20260506160016 58 68 3.0 10.0 0.00 0.00 0.00 54 1009.8
20260506154516 58 68 2.0 10.0 0.00 0.00 0.00 56 1009.8
20260506153016 58 45 2.0 8.0 0.00 0.00 0.00 57 1009.8
20260506151516 59 45 2.0 10.0 0.00 0.00 0.00 59 1009.7
20260506150036 60 68 2.0 12.0 0.00 0.00 0.00 58 1009.7
20260506144516 60 45 2.0 12.0 0.00 0.00 0.00 59 1009.5
20260506143016 59 0 3.0 10.0 0.00 0.00 0.00 58 1009.5
20260506141516 58 23 1.0 8.0 0.00 0.00 0.00 62 1009.6
20260506140016 58 23 1.0 7.0 0.00 0.00 0.00 63 1009.7
20260506134536 57 23 2.0 7.0 0.00 0.00 0.00 62 1009.6
20260506133016 57 23 2.0 9.0 0.00 0.00 0.00 61 1009.6
20260506131516 58 45 3.0 9.0 0.00 0.00 0.00 62 1009.6
20260506130036 58 23 3.0 11.0 0.00 0.00 0.00 61 1009.5
20260506124516 59 0 2.0 10.0 0.00 0.00 0.00 61 1009.3
20260506123016 59 23 2.0 9.0 0.00 0.00 0.00 63 1009.2
20260506121516 59 23 2.0 8.0 0.00 0.00 0.00 60 1009.3
20260506120016 59 23 2.0 7.0 0.00 0.00 0.00 60 1009.2